sat.trackr.live / text

‹ back to catalog

STARLINK-32684

NORAD 62194 · 2024-229C

PAYLOAD ACTIVE UNKNOWN

§ Identity

Operator
Country
US
Launch date
2024-12-04
Launch site
AFETR
Launch vehicle
Mass (kg)
RCS (m²)

Purposes: comms

External: N2YO · Heavens-Above · Gunter

§ Orbital elements

Epoch: 2026-09-20T15:58:50.570112Z

Period
94.27 min
Inclination
42.9994°
Eccentricity
0.0000858
Mean motion
15.27580939 rev/d
Perigee alt
482.5 km
Apogee alt
483.6 km
Semi-major
6,861.2 km
B*
3.1539e-4
RAAN
249.3202°
Arg perigee
276.5719°
Mean anomaly
83.5035°
Rev number
10,156

§ Raw data

STARLINK-326841 62194U 24229C   26263.66586308  .00008427  00000+0  31539-3 0  99962 62194  42.9994 249.3202 0000858 276.5719  83.5035 15.27580939101567

JSON: /api/v1/satellites/62194 · /tle

For live sub-satellite position, see the globe view (requires WebGL).

§ Visibility from observer

Set your observer location to see the next 7 days of passes ≥ 10°. The values pass through the URL so the page stays shareable.

No JS? Fill the form by hand. The geolocation button needs JavaScript.